Terminal Aerodrome Forecast
Issued by NWS

Home | Current Version | Previous Version | Text Only | Print | Product List | Glossary On
Versions: 1 2 3 4 5 6 7 8 9 10 11 12 13 14 15 16
922
FTUS45 KPIH 221129
TAFSUN
TAF
KSUN 221129Z 2212/2312 VRB05KT P6SM VCSH BKN080
     FM221800 12008KT P6SM -SHRA VCTS BKN050CB OVC080
     FM230300 31006KT P6SM VCSH BKN080
      AMD LTD TO CLD VIS AND WIND TIL 221300=

USA.gov is the U.S. government's official web portal to all federal, state and local government web resources and services.